www.pogodaiklimat.ru

Погода и климат >> Архив погоды >> Узбекистан >> Пап


ПОГОДА в Папе

  • Прогноз погоды в Папе
  • Монитор погоды в Папе

АРХИВ ПОГОДЫ в Папе

Время (UTC), дата Ветер
(напр.,м/с)
 
Видим.   Явления Облачность Т
(С)
Тd
(С)
f
(%)
Тe
(С)
Тes
(С)
Комфортность P
(гПа)
Po
(гПа)
Тmin
(С)
Tmax
(С)
R
(мм)
R24
(мм)
S
(см)
00 12.06 штиль 0 10 км ясно +15.3 +9.5 68 +15 +15 1016.9 965.5
03 12.06 СВ 1 10 км ясно +21.1 +10.0 49 +23 +31 комфорт 1016.6 966.1
06 12.06 ЮВ 1 10 км ясно +25.0 +10.7 41 +26 +48 жарко 1015.2 965.6 +15.2
09 12.06 С 1 10 км 1/0
[Ci]
+27.8 +9.8 32 +28 +48 жарко 1014.4 965.1
12 12.06 штиль 0 10 км 3/0
[Ci]
+28.4 +9.9 32 +29 +35 жарко 1011.3 962.4
15 12.06 штиль 0 10 км ясно +23.4 +10.4 44 +25 +25 комфорт 1012.9 963.1 +28.7
18 12.06 штиль 0 10 км ясно +19.8 +14.4 71 +22 +22 комфорт 1013.4 963.0 +28.7
21 12.06 штиль 0 10 км ясно +18.7 +11.7 64 +19 +19 1013.1 962.5
00 13.06 штиль 0 10 км ясно +15.7 +11.4 76 +16 +16 1013.3 962.2
03 13.06 штиль 0 10 км ясно +22.9 +13.2 54 +26 +36 жарко 1011.8 962.1
06 13.06 штиль 0 10 км ясно +28.3 +11.4 35 +29 +54 опасность
солнечного
удара
1009.5 960.7 +15.5
12 13.06 штиль 0 10 км ясно +31.4 +8.6 24 +30 +37 жарко 1005.9 957.7
15 13.06 штиль 0 10 км ясно +25.3 +12.9 46 +27 +27 жарко 1006.3 957.1 +32.4
18 13.06 штиль 0 10 км ясно +21.8 +12.3 55 +24 +24 комфорт 1006.5 956.7 +32.4
21 13.06 штиль 0 10 км ясно +20.5 +11.3 56 +22 +22 комфорт 1006.0 956.1
00 14.06 штиль 0 10 км ясно +18.0 +10.7 62 +18 +18 1006.7 956.2
03 14.06 штиль 0 10 км ясно +24.9 +12.0 45 +27 +36 жарко 1005.4 956.3
06 14.06 штиль 0 10 км 3/0
[Ci]
+30.1 +12.9 35 +31 +55 опасность
солнечного
удара
1004.0 955.7 +17.9
09 14.06 штиль 0 10 км 1/0
[Ci]
+33.0 +9.3 23 +32 +55 опасность
солнечного
удара
1002.6 954.7
12 14.06 Ю 1 10 км ясно +35.7 +5.9 16 +33 +39 жарко 1000.9 953.5
15 14.06 штиль 0 10 км 3/0
[Ci]
+28.3 +13.7 41 +30 +30 жарко 1002.4 953.9 +36.3
18 14.06 штиль 0 10 км 3/0
[Ci]
+24.4 +10.6 42 +26 +26 жарко 1003.9 954.7 +36.3
21 14.06 С 1 10 км 4/0
[Ci]
+20.4 +11.5 57 +23 +23 комфорт 1004.4 954.6
00 15.06 штиль 0 10 км 10/0
[Ci]
+19.4 +10.7 57 +20 +20 1004.9 954.9
03 15.06 штиль 0 10 км 10/0
[Ac trans Ci]
+27.5 +12.4 39 +29 +35 жарко 1004.5 955.7
06 15.06 Ю 1 10 км 10/4 600 м
[Cb cap Ac trans Ci]
+30.5 +12.8 34 +32 +38 жарко 1004.4 956.1 +19.3
09 15.06 ЮЗ 1 10 км 10/4 600 м
[Cb cap Ac trans]
+30.6 +11.1 30 +31 +36 жарко 1004.7 956.4
12 15.06 ЮЗ 7 10 км 10/0
[Ac trans Ci]
+29.6 +10.0 30 +30 +31 жарко 1004.8 956.4
15 15.06 ЮЗ 2 10 км 3/0
[Ci]
+27.1 +8.4 31 +27 +27 жарко 1006.1 957.1 +31.6
18 15.06 штиль 0 10 км 10/0
[Ci]
+21.2 +10.4 50 +23 +23 комфорт 1008.0 958.1 +31.6
00 16.06 штиль 0 10 км 10/0
[Ci]
+20.2 +10.9 55 +22 +22 комфорт 1008.2 958.2
03 16.06 штиль 0 10 км 3/0
[Ci]
+26.8 +9.4 33 +27 +36 жарко 1007.8 958.8
06 16.06 В 1 10 км ясно +30.8 +10.4 28 +31 +52 опасность
солнечного
удара
1006.8 958.4 +18.8
09 16.06 В 1 10 км ясно +33.8 +10.2 24 +33 +54 опасность
солнечного
удара
1005.0 957.1
12 16.06 ЮЗ 1 10 км ясно +33.5 +9.5 23 +33 +39 жарко 1004.0 956.2
15 16.06 штиль 0 10 км ясно +28.7 +12.7 37 +30 +30 жарко 1005.0 956.4 +34.2
18 16.06 В 1 10 км 4/0
[Ci]
+22.8 +7.0 36 +24 +24 комфорт 1005.9 956.3 +34.2
21 16.06 штиль 0 10 км 3/0
[Ci]
+19.4 +8.2 48 +20 +20 1006.8 956.7
00 17.06 штиль 0 10 км 10/0
[Ci]
+19.6 +12.1 62 +21 +21 комфорт 1007.2 957.0
03 17.06 штиль 0 10 км 3/0
[Ci]
+24.3 +12.1 46 +26 +35 жарко 1006.9 957.5
09 17.06 штиль 0 10 км ясно +33.4 +10.0 24 +33 +56 опасность
солнечного
удара
1004.1 956.3
12 17.06 В 1 10 км ясно +34.1 +10.4 24 +33 +40 жарко 1002.7 955.1
15 17.06 штиль 0 10 км ясно +27.9 +12.3 38 +29 +29 жарко 1003.6 955.0 +34.5
18 17.06 штиль 0 10 км 3/0
[Ci]
+22.3 +12.1 52 +25 +25 комфорт 1005.0 955.4 +34.5
21 17.06 штиль 0 10 км 6/0
[Ci]
+20.4 +11.5 57 +22 +22 комфорт 1005.1 955.2
00 18.06 штиль 0 10 км 3/0
[Ci]
+19.1 +10.2 56 +20 +20 1005.8 955.5
03 18.06 штиль 0 10 км 4/0
[Ac trans Ci]
+25.3 +13.3 47 +27 +35 жарко 1005.2 956.1
15 18.06 ЮЗ 1 10 км 8/0
[Ac trans Ci]
+29.7 +8.2 26 +29 +29 жарко 1002.4 954.1 +34.8

 

Местоположение метеостанции Пап (Намаганская область, Узбекистан): широта 40.88 долгота 71.12 высота над уровнем моря 442 м.

В архиве по умолчанию представлена погода в Папе за последнюю неделю. Архивные данные за месяц целиком и за предыдущие месяцы, начиная с января 2011 года, Вы можете получить, выбрав интересующий диапазон дат из раскрывающегося списка и нажав кнопку "Ввод!".


*Определитесь, кто Вы:
робот инопланетянин человек

Внимание! Время в таблицах - всемирное. Для получения местного времени необходимо прибавить поправку, которая равна 5 ч.

Смотрите также архив погоды в соседних городах и на ближайших метеорологических станциях:

Погода в Коканде (Ферганская область, Узбекистан) (39 км)
Погода в Намангане (Намаганская область, Узбекистан) (40 км)
Погода в Юбилейной (Андижанская область, Узбекистан) (41 км)
Погода в Камчике (Ташкентская область, Узбекистан) (58 км)
Погода в Бозе (Андижанская область, Узбекистан) (71 км)
Погода в Фергане (Ферганская область, Узбекистан) (78 км)
Погода в Ангрене (Ташкентская область, Узбекистан) (80 км)
Погода в Куве (Ферганская область, Узбекистан) (89 км)
Погода в Пача-Ате (Джалал-Абадская область, Киргизия) (90 км)
Погода в Дуканте (Ташкентская область, Узбекистан) (93 км)

Пояснения к столбцам:

Ветер - указаны скорость ветра в м/с - средняя за 10 мин, порывы в срок и между сроками (в фигурных скобках) и направление, откуда дует ветер: С - северный, СВ - северо-восточный, В - восточный, ЮВ - юго-восточный, Ю - южный, ЮЗ - юго-западный, З - западный, СЗ - северо-западный.
Видимость - горизонтальная дальность видимости в метрах или километрах. При видимости от 1 до 10 км при отсутствии осадков обычно наблюдается дымка, при ухудшении видимости до 1 км и менее - туман. В сухую погоду видимость может ухудшаться дымом, пылью или мглою.
Явления - указаны атмосферные явления, наблюдавшиеся в срок или в последний час перед сроком; фигурными скобками обозначены явления, наблюдавшиеся между сроками (за 1-3 часа до срока); квадратными скобками обозначены град или гололедные отложения с указанием их диаметра в мм.
Облачность - указаны через наклонную черту общая и нижняя облачность в баллах и высота нижней границы облаков в метрах; квадратными скобками обозначены формы облаков: Ci - перистые, Cs - перисто-слоистые, Cc - перисто-кучевые, Ac - высококучевые, As - высокослоистые, Sc - слоисто-кучевые, Ns - слоисто-дождевые, Cu - кучевые, Cb - кучево-дождевые. Подробнее классификацию облаков см. в Атласе облаков (PDF).
T - Температура воздуха - температура, измеренная на высоте 2 м над землей.
Td - Температура точки росы - температура, при понижении до которой содержащийся в воздухе водяной пар достигнет насыщения.
f - Относительная влажность воздуха - влажноcть воздуха, измеренная на высоте 2 м над землей.
Te - Эффективная температура - температура, которую ощущает одетый по сезону человек в тени. Характеристика душности погоды. При расчете учитывается влияние влажности воздуха и скорости ветра на теплоощущения человека.
Tes - Эффективная температура на солнце - температура, которую ощущает человек, с поправкой на солнечный нагрев. Характеристика знойности погоды. Зависит от высоты солнца над горизонтом, облачности и скорости ветра. Ночью, в пасмурную погоду, а также при ветре 12 м/с и более поправка равна нулю.
P - Атмосферное давление - приведенное к уровню моря атмосферное давление.
Po - Атмосферное давление - измеренное на уровне метеостанции атмосферное давление.
Tmin - Минимальная температура - минимум температуры воздуха на высоте 2 м над землей.
Tmax - Максимальная температура - максимум температуры воздуха на высоте 2 м над землей.
R - Количество осадков - Количество выпавших осадков за период времени, мм. При наведении курсора мыши на число - период времени, за который выпало указанное количество осадков.
R24 - Количество осадков - Количество выпавших осадков за 24 часа, мм.
S - Снежный покров - Высота снежного покрова, см. При наведении курсора мыши на число - состояние снежного покрова и степень покрытия местности в баллах.